Weather History for New Haven, CT

Change the Weather History Date:

Thursday, January 23, 2014

  Actual Average Record
Temperature  
Mean Temperature 13 °F -  
Max Temperature 19 °F 32 °F 53 °F (1974)
Min Temperature 7 °F 20 °F 6 °F (2005)
Degree Days  
Heating Degree Days 52    
Moisture  
Dew Point -3 °F    
Average Humidity 48    
Maximum Humidity 56    
Minimum Humidity 40    
Precipitation  
Precipitation 0.00 in - - ()
Sea Level Pressure  
Sea Level Pressure 30.11 in    
Wind  
Wind Speed 7 mph (NW)    
Max Wind Speed 10 mph    
Max Gust Speed 18 mph    
Visibility 10 miles    
Events      
Averages and records for this station are not official NWS values.
T = Trace of Precipitation, MM = Missing Value Source: NWS Daily Summary

Daily Weather History Graph

Daily Weather History Graph

Search for Another Location

Airport:

Trip Planner

Search our weather history database for the weather conditions in past years. The results will help you decide how hot, cold, wet, or windy it might be!

Date:

Astronomy

Jan. 23, 2014 Rise Set
Actual Time 7:10 AM EST 4:56 PM EST
Civil Twilight 6:40 AM EST 5:26 PM EST
Nautical Twilight 6:06 AM EST 6:00 PM EST
Astronomical Twilight 5:34 AM EST 6:33 PM EST
Moon No Moon Rise 10:39 AM EST (1/23)
Length of Visible Light 10h 46m
Length of Day
9h 46m
Waning Gibbous, 55% of the Moon is Illuminated
Jan 23
Waning Gibbous
Jan 24
Last Quarter
Jan 30
New
Feb 6
First Quarter
Feb 14
Full

Hourly Weather History & Observations

Time (EST) Temp. Windchill Dew Point Humidity Pressure Visibility Wind Dir Wind Speed Gust Speed Precip Events Conditions
12:53 AM 7.0 °F -5.7 °F -7.1 °F 53% 29.96 in 10.0 mi North 8.1 mph - N/A   Clear
1:53 AM 7.0 °F 0.1 °F -7.1 °F 53% 29.99 in 10.0 mi North 3.5 mph - N/A   Clear
2:53 AM 7.0 °F -3.3 °F -7.1 °F 53% 30.01 in 10.0 mi NNW 5.8 mph - N/A   Partly Cloudy
3:53 AM 7.0 °F -4.5 °F -6.0 °F 55% 30.03 in 10.0 mi NW 6.9 mph - N/A   Clear
4:53 AM 7.0 °F -1.7 °F -7.1 °F 53% 30.04 in 10.0 mi NNW 4.6 mph - N/A   Scattered Clouds
5:53 AM 7.0 °F -3.3 °F -6.0 °F 55% 30.06 in 10.0 mi WNW 5.8 mph - N/A   Mostly Cloudy
6:53 AM 7.0 °F -4.5 °F -6.0 °F 55% 30.08 in 10.0 mi West 6.9 mph - N/A   Mostly Cloudy
7:53 AM 8.1 °F -3.2 °F -7.1 °F 50% 30.09 in 10.0 mi NNW 6.9 mph - N/A   Mostly Cloudy
8:53 AM 9.0 °F 0.6 °F -5.1 °F 53% 30.10 in 10.0 mi NW 4.6 mph - N/A   Mostly Cloudy
9:53 AM 12.0 °F 1.5 °F -6.0 °F 44% 30.11 in 10.0 mi NW 6.9 mph - N/A   Scattered Clouds
10:53 AM 14.0 °F 5.1 °F -4.0 °F 45% 30.10 in 10.0 mi Variable 5.8 mph - N/A   Clear
11:53 AM 15.1 °F 6.4 °F -2.0 °F 47% 30.09 in 10.0 mi NW 5.8 mph - N/A   Clear
12:53 PM 18.0 °F 9.8 °F -2.0 °F 41% 30.08 in 10.0 mi Variable 5.8 mph - N/A   Clear
1:53 PM 19.0 °F 7.5 °F -2.0 °F 40% 30.09 in 10.0 mi NW 10.4 mph 17.3 mph N/A   Clear
2:53 PM 19.9 °F 8.6 °F -0.9 °F 40% 30.10 in 10.0 mi NW 10.4 mph 16.1 mph N/A   Scattered Clouds
3:53 PM 19.9 °F 11.1 °F -0.9 °F 40% 30.12 in 10.0 mi NNW 6.9 mph - N/A   Scattered Clouds
4:53 PM 19.0 °F 9.0 °F -0.0 °F 43% 30.14 in 10.0 mi WNW 8.1 mph 18.4 mph N/A   Scattered Clouds
5:53 PM 19.0 °F 9.0 °F -0.9 °F 42% 30.17 in 10.0 mi West 8.1 mph 16.1 mph N/A   Scattered Clouds
6:53 PM 18.0 °F 6.9 °F -0.9 °F 44% 30.20 in 10.0 mi WNW 9.2 mph - N/A   Partly Cloudy
7:53 PM 17.1 °F 8.7 °F -0.0 °F 47% 30.22 in 10.0 mi Variable 5.8 mph - N/A   Clear
8:53 PM 16.0 °F 8.8 °F -0.0 °F 49% 30.23 in 10.0 mi Variable 4.6 mph - N/A   Clear
9:53 PM 16.0 °F 5.3 °F -0.0 °F 49% 30.24 in 10.0 mi WNW 8.1 mph - N/A   Clear
10:53 PM 15.1 °F 7.7 °F 1.0 °F 54% 30.25 in 10.0 mi West 4.6 mph - N/A   Clear
11:53 PM 15.1 °F 6.4 °F 1.9 °F 56% 30.25 in 10.0 mi West 5.8 mph - N/A   Clear